map of SBAF home
Great Circle Mapper logo
SBAF - Airport
Location
City:  Rio de Janeiro, Rio de Janeiro, Brazil
Name:Campo Délio Jardim de Matos
Old (Alt.):Afonsos AFB
ICAO:SBAF

Details
Type:Airport (Aerodrome, Airfield)
Use:Military
Latitude:22°52'30"S (-22.875082)
Longitude:43°23'05"W (-43.384707)
Datum:WGS 1984
Elevation:110 ft (34 m)
Variation:22.57°W (WMM2015 magnetic declination)
-0.10° annual change
Runways:1
Longest:6565 × 171 ft (2001 × 52 m), paved

Time
Time Zone:UTC-3 (DST-2)
Local Time:

Weather
METAR:SBAF 011200Z 33002KT 3000 BR BKN010 22/19 Q1026
TAF:SBAF 010800Z 0112/0124 08003KT 2000 BR BKN004 TX24/0116Z TN19/0124Z
BECMG 0114/0116 18012KT 6000 NSW SCT020
BECMG 0120/0122 26005KT
RMK PHQ

Related Locations
Nearby:
Farthest:IWO: 12119 mi / 19503 km
Iwo Jima [Iwo Jima AB], Iwo Jima Island, 13, JP

Find:

   beyond  
but within

Other Information
Maps:
NOTAMs:
Links:
Sources:

  
flag of Brazil
flag of Rio de Janeiro
flag of Rio de Janeiro
  

Sectional Chart

Flight Planning
at skyvector.com

Satellite Image

Google Maps Satellite view

 

Copyright © 2004-2016 Karl L. Swartz. All rights reserved.
The Great Circle Mapper name and logo are trademarks of the Great Circle Mapper.
All other trademarks mentioned herein belong to their respective owners.
Please see credits for attibutions and further copyright information.

  Follow gcmap on Facebook Follow gcmap on Twitter Follow gcmap on Google+ GCmap on LinkedIn

hCard Microformat

Geo Microformat